User: anonymous   Login
Location: Unspecified
(0.0000°N, 0.0000°E)
Time: 18:43:14
(UTC+00:00)
Language:

OBJECT PJ - Orbit

View from above orbital plane
View from above orbital plane
View from above satellite
View from above satellite

Ground track
Ground track

The orbit data is extracted from the following two-line orbital elements,

1 43597U 98067PJ  18350.77300511 +.00007584 +00000-0 +10936-3 0  9995
2 43597 051.6363 187.2243 0004676 150.4868 209.6389 15.57083582019153
Epoch (UTC): 16 December 2018 18:33:07
Eccentricity: 0.0004676
inclination: 51.6363°
perigee height: 393 km
apogee height: 399 km
right ascension of ascending node: 187.2243°
argument of perigee: 150.4868°
revolutions per day: 15.57083582
mean anomaly at epoch: 209.6389°
orbit number at epoch: 1915

The dashed part of the orbit path shows where the satellite is in the earth's shadow,  

DLR